Location: Breitenfeld
(46.8500°N, 15.6333°E)
Time: 18:49:24
(UTC+00:00)

BREEZE M DEB (TANK) - Pass Details

Date: 09 April 2020
Orbit: 304 x 11878 km, 49.5° (Epoch: 22 May)

Event Time Altitude Azimuth Distance (km) Brightness Sun altitude
Rises 19:18:57 0° 227° (SW) 2,276 5.7 -16.7°
Reaches altitude 10° 19:20:20 10° 222° (SW) 1,638 4.8 -16.9°
Maximum altitude 19:23:31 55° 143° (SE) 906 3.0 -17.4°
Drops below altitude 10° 19:32:23 10° 68° (ENE) 4,468 6.6 -18.6°
Sets 19:38:55 0° 66° (ENE) 7,086 7.7 -19.5°
